�������l�o���
Date,Time,MP-1(��Sv/h),MP-2(��Sv/h),MP-3(��Sv/h),MP-4(��Sv/h),MP-5(��Sv/h),MP-6(��Sv/h),MP-7(��Sv/h),MP-8(��Sv/h),����,����(m/s),���J
2023/05/29,00:00,0.559,0.817,0.497,0.995,0.724,0.330,0.576,0.543,�쐼,2.5,�L
2023/05/29,00:10,0.560,0.818,0.497,0.995,0.723,0.330,0.575,0.542,��쐼,2.0,�L
2023/05/29,00:20,0.560,0.816,0.499,0.994,0.723,0.330,0.574,0.542,�쐼,2.2,�L
2023/05/29,00:30,0.558,0.816,0.497,0.994,0.720,0.328,0.573,0.541,��쐼,2.8,�L
2023/05/29,00:40,0.557,0.815,0.495,0.994,0.720,0.329,0.572,0.540,��쐼,3.8,�L
2023/05/29,00:50,0.556,0.815,0.496,0.995,0.720,0.328,0.574,0.540,��쐼,4.2,�L
2023/05/29,01:00,0.555,0.813,0.495,0.992,0.719,0.327,0.574,0.541,�쐼,3.2,�L
2023/05/29,01:10,0.556,0.812,0.495,0.991,0.716,0.326,0.575,0.540,��쐼,2.8,��
2023/05/29,01:20,0.554,0.814,0.494,0.991,0.718,0.326,0.572,0.541,��쐼,3.1,�L
2023/05/29,01:30,0.554,0.812,0.495,0.990,0.719,0.327,0.573,0.541,��쐼,3.1,�L
2023/05/29,01:40,0.554,0.812,0.493,0.991,0.719,0.326,0.572,0.539,��쐼,3.6,�L
2023/05/29,01:50,0.554,0.811,0.492,0.989,0.716,0.325,0.573,0.540,��쐼,2.9,�L
2023/05/29,02:00,0.554,0.811,0.493,0.989,0.717,0.325,0.572,0.538,��쐼,3.5,�L
2023/05/29,02:10,0.554,0.810,0.492,0.989,0.718,0.327,0.573,0.538,��쐼,4.2,�L
2023/05/29,02:20,0.555,0.812,0.495,0.992,0.718,0.327,0.572,0.540,��쐼,3.0,�L
2023/05/29,02:30,0.556,0.814,0.494,0.992,0.718,0.327,0.574,0.541,��쐼,2.0,�L
2023/05/29,02:40,0.553,0.814,0.495,0.992,0.720,0.327,0.573,0.540,��쐼,2.0,�L
2023/05/29,02:50,0.554,0.812,0.494,0.993,0.718,0.329,0.574,0.541,��,1.5,�L
2023/05/29,03:00,0.555,0.812,0.494,0.993,0.719,0.329,0.572,0.540,��쐼,1.1,�L
2023/05/29,03:10,0.555,0.814,0.493,0.991,0.717,0.328,0.574,0.539,�쐼,1.5,��
2023/05/29,03:20,0.555,0.812,0.493,0.991,0.714,0.328,0.573,0.541,�쐼,2.5,��
2023/05/29,03:30,0.554,0.810,0.493,0.988,0.717,0.327,0.574,0.540,�쐼,2.0,�L
2023/05/29,03:40,0.553,0.809,0.491,0.990,0.715,0.327,0.574,0.541,���쐼,2.0,�L
2023/05/29,03:50,0.554,0.810,0.493,0.991,0.715,0.327,0.573,0.539,��,2.0,�L
2023/05/29,04:00,0.554,0.811,0.493,0.986,0.716,0.328,0.571,0.541,���k��,1.7,�L
2023/05/29,04:10,0.554,0.811,0.493,0.989,0.715,0.326,0.574,0.541,�k��,0.9,�L
2023/05/29,04:20,0.554,0.810,0.494,0.990,0.717,0.328,0.574,0.538,���k��,0.8,�L
2023/05/29,04:30,0.554,0.810,0.494,0.990,0.714,0.328,0.573,0.541,-,CALM,�L
2023/05/29,04:40,0.555,0.810,0.494,0.990,0.716,0.327,0.572,0.541,��쐼,0.8,�L
2023/05/29,04:50,0.554,0.809,0.493,0.990,0.716,0.328,0.572,0.539,��쐼,1.1,�L
2023/05/29,05:00,0.553,0.809,0.494,0.990,0.714,0.328,0.574,0.539,�쐼,2.0,��
2023/05/29,05:10,0.553,0.808,0.492,0.989,0.714,0.325,0.572,0.540,�쐼,2.0,��
2023/05/29,05:20,0.551,0.807,0.494,0.989,0.713,0.326,0.571,0.540,���쐼,2.2,��
2023/05/29,05:30,0.552,0.808,0.491,0.987,0.714,0.324,0.572,0.539,���쐼,2.3,��
2023/05/29,05:40,0.551,0.808,0.492,0.988,0.713,0.325,0.572,0.539,�쐼,2.2,�L
2023/05/29,05:50,0.551,0.809,0.491,0.987,0.714,0.325,0.572,0.540,��쐼,3.2,�L
2023/05/29,06:00,0.553,0.810,0.492,0.988,0.713,0.324,0.573,0.541,��쐼,2.9,�L
2023/05/29,06:10,0.552,0.808,0.492,0.991,0.715,0.326,0.572,0.539,��쐼,3.1,�L
2023/05/29,06:20,0.554,0.808,0.493,0.990,0.716,0.325,0.572,0.541,��,3.0,�L
2023/05/29,06:30,0.553,0.809,0.492,0.990,0.715,0.324,0.572,0.539,��쐼,2.6,�L
2023/05/29,06:40,0.552,0.810,0.492,0.988,0.713,0.324,0.572,0.539,��,2.3,�L
2023/05/29,06:50,0.552,0.809,0.493,0.991,0.715,0.326,0.572,0.539,��쐼,2.6,�L
2023/05/29,07:00,0.552,0.809,0.492,0.987,0.714,0.325,0.571,0.540,��쐼,2.6,�L
2023/05/29,07:10,0.553,0.810,0.493,0.987,0.714,0.324,0.571,0.539,��쐼,4.3,�L
2023/05/29,07:20,0.551,0.807,0.493,0.988,0.713,0.325,0.571,0.538,��쐼,5.1,�L
2023/05/29,07:30,0.552,0.807,0.491,0.984,0.714,0.324,0.571,0.539,��쐼,4.8,�L
2023/05/29,07:40,0.553,0.807,0.492,0.987,0.712,0.324,0.571,0.539,��쐼,4.1,�L
2023/05/29,07:50,0.551,0.807,0.491,0.987,0.712,0.324,0.572,0.538,��,3.1,�L
2023/05/29,08:00,0.550,0.806,0.490,0.987,0.714,0.323,0.571,0.537,��쐼,3.0,��
2023/05/29,08:10,0.550,0.804,0.490,0.987,0.710,0.324,0.571,0.539,��쐼,2.9,��
2023/05/29,08:20,0.548,0.805,0.490,0.986,0.711,0.323,0.570,0.537,��쐼,2.0,�L
2023/05/29,08:30,0.551,0.806,0.491,0.988,0.711,0.323,0.572,0.538,��쐼,1.7,�L
2023/05/29,08:40,0.548,0.804,0.491,0.986,0.710,0.323,0.570,0.540,��쐼,1.5,�L
2023/05/29,08:50,0.549,0.803,0.490,0.989,0.710,0.323,0.572,0.537,��쐼,2.2,�L
2023/05/29,09:00,0.549,0.805,0.489,0.987,0.711,0.324,0.570,0.537,��쐼,1.7,�L
2023/05/29,09:10,0.550,0.804,0.490,0.987,0.713,0.325,0.571,0.537,��,1.4,�L
2023/05/29,09:20,0.553,0.803,0.491,0.990,0.713,0.324,0.570,0.537,��쐼,2.2,�L
2023/05/29,09:30,0.550,0.807,0.491,0.988,0.714,0.325,0.569,0.538,��,2.8,�L
2023/05/29,09:40,0.552,0.807,0.494,0.990,0.713,0.325,0.572,0.537,��,3.0,�L
2023/05/29,09:50,0.552,0.807,0.494,0.988,0.710,0.325,0.572,0.539,��,2.9,�L
2023/05/29,10:00,0.550,0.803,0.493,0.989,0.712,0.324,0.572,0.537,��,3.4,�L
2023/05/29,10:10,0.550,0.803,0.492,0.989,0.709,0.326,0.570,0.535,��,3.8,�L
2023/05/29,10:20,0.553,0.803,0.493,0.985,0.709,0.326,0.571,0.538,��쓌,3.5,�L
2023/05/29,10:30,0.552,0.801,0.492,0.987,0.708,0.326,0.570,0.537,��,3.5,�L
2023/05/29,10:40,0.552,0.803,0.492,0.986,0.709,0.326,0.570,0.536,��,2.8,�L
2023/05/29,10:50,0.551,0.802,0.491,0.986,0.709,0.326,0.573,0.538,��,2.5,�L
2023/05/29,11:00,0.551,0.802,0.493,0.987,0.711,0.324,0.571,0.538,��쓌,2.8,�L
2023/05/29,11:10,0.549,0.803,0.491,0.986,0.709,0.325,0.570,0.538,��쓌,2.8,�L
2023/05/29,11:20,0.548,0.803,0.491,0.985,0.711,0.324,0.570,0.537,��쓌,1.7,�L
2023/05/29,11:30,0.548,0.802,0.490,0.984,0.709,0.324,0.570,0.536,�쓌,1.1,�L
2023/05/29,11:40,0.549,0.802,0.491,0.987,0.708,0.324,0.571,0.537,���쓌,1.1,�L
2023/05/29,11:50,0.548,0.803,0.490,0.985,0.709,0.323,0.570,0.537,���쓌,1.2,�L
2023/05/29,12:00,0.545,0.803,0.489,0.986,0.711,0.323,0.570,0.536,���쓌,1.7,�L
2023/05/29,12:10,0.546,0.799,0.488,0.985,0.707,0.322,0.570,0.536,�쓌,2.0,�L
2023/05/29,12:20,0.547,0.802,0.489,0.985,0.709,0.324,0.570,0.536,�쓌,3.5,�L
2023/05/29,12:30,0.546,0.803,0.488,0.983,0.708,0.323,0.571,0.536,�쓌,3.0,��
2023/05/29,12:40,0.548,0.802,0.489,0.985,0.707,0.322,0.571,0.537,�쓌,2.3,�L
2023/05/29,12:50,0.546,0.803,0.490,0.983,0.708,0.322,0.571,0.536,�쓌,2.3,��
2023/05/29,13:00,0.548,0.802,0.488,0.984,0.708,0.324,0.571,0.536,�쓌,3.1,�L
2023/05/29,13:10,0.549,0.804,0.488,0.980,0.708,0.323,0.571,0.537,�쓌,3.4,�L
2023/05/29,13:20,0.548,0.804,0.488,0.982,0.711,0.323,0.571,0.536,�쓌,3.1,�L
2023/05/29,13:30,0.546,0.806,0.489,0.984,0.709,0.323,0.571,0.536,��쓌,2.6,�L
2023/05/29,13:40,0.548,0.804,0.489,0.983,0.710,0.325,0.572,0.536,�쓌,2.3,�L
2023/05/29,13:50,0.549,0.802,0.491,0.985,0.708,0.325,0.570,0.536,�쓌,2.6,�L
2023/05/29,14:00,0.548,0.804,0.489,0.982,0.712,0.323,0.571,0.538,�쓌,3.1,�L
2023/05/29,14:10,0.549,0.804,0.490,0.985,0.707,0.324,0.571,0.536,�쓌,3.2,�L
2023/05/29,14:20,0.549,0.805,0.490,0.984,0.713,0.323,0.570,0.538,�쓌,3.0,��
2023/05/29,14:30,0.548,0.803,0.490,0.986,0.713,0.324,0.571,0.539,��쓌,3.2,��
2023/05/29,14:40,0.545,0.804,0.492,0.985,0.710,0.325,0.573,0.537,��쓌,3.6,��
2023/05/29,14:50,0.546,0.804,0.492,0.987,0.710,0.323,0.572,0.537,��쓌,3.8,��
2023/05/29,15:00,0.547,0.804,0.489,0.986,0.711,0.324,0.571,0.537,��쓌,3.4,��
2023/05/29,15:10,0.546,0.804,0.491,0.987,0.712,0.324,0.570,0.536,��쓌,2.2,��
2023/05/29,15:20,0.546,0.803,0.490,0.986,0.710,0.323,0.570,0.536,�쓌,2.5,��
2023/05/29,15:30,0.546,0.804,0.491,0.986,0.710,0.323,0.570,0.537,�쓌,1.2,��
2023/05/29,15:40,0.546,0.807,0.490,0.986,0.711,0.324,0.572,0.538,�쓌,2.2,��
2023/05/29,15:50,0.547,0.805,0.489,0.984,0.710,0.323,0.572,0.536,�쓌,1.5,��
2023/05/29,16:00,0.547,0.805,0.489,0.986,0.710,0.322,0.571,0.538,�쓌,1.7,��
2023/05/29,16:10,0.547,0.806,0.491,0.985,0.711,0.323,0.571,0.538,�쓌,0.9,��
2023/05/29,16:20,0.545,0.804,0.490,0.986,0.711,0.324,0.572,0.537,-,CALM,�L
2023/05/29,16:30,0.547,0.807,0.492,0.987,0.711,0.324,0.570,0.537,-,CALM,�L
2023/05/29,16:40,0.546,0.807,0.491,0.987,0.711,0.324,0.572,0.539,��쓌,0.9,�L
2023/05/29,16:50,0.545,0.805,0.492,0.988,0.711,0.324,0.571,0.537,���쓌,0.6,�L
2023/05/29,17:00,0.548,0.807,0.491,0.988,0.711,0.323,0.572,0.538,���쓌,0.6,��
2023/05/29,17:10,0.547,0.806,0.492,0.987,0.712,0.324,0.571,0.539,-,CALM,��
2023/05/29,17:20,0.547,0.809,0.493,0.986,0.714,0.324,0.571,0.539,-,CALM,�L
2023/05/29,17:30,0.548,0.809,0.494,0.987,0.712,0.324,0.571,0.539,-,CALM,�L
2023/05/29,17:40,0.548,0.811,0.492,0.988,0.713,0.324,0.571,0.536,-,CALM,�L
2023/05/29,17:50,0.548,0.808,0.492,0.987,0.714,0.323,0.571,0.538,-,CALM,��
2023/05/29,18:00,0.548,0.810,0.493,0.987,0.715,0.323,0.572,0.539,��쐼,0.6,��
2023/05/29,18:10,0.547,0.809,0.493,0.987,0.715,0.324,0.571,0.538,-,CALM,��
2023/05/29,18:20,0.549,0.810,0.493,0.988,0.714,0.325,0.572,0.539,-,CALM,��
2023/05/29,18:30,0.548,0.810,0.495,0.990,0.715,0.324,0.574,0.540,-,CALM,��
2023/05/29,18:40,0.548,0.810,0.494,0.988,0.714,0.325,0.572,0.539,-,CALM,��
2023/05/29,18:50,0.549,0.810,0.492,0.989,0.713,0.324,0.573,0.539,��,0.6,��
2023/05/29,19:00,0.548,0.811,0.494,0.988,0.714,0.324,0.573,0.540,-,CALM,��
2023/05/29,19:10,0.549,0.809,0.493,0.988,0.714,0.325,0.571,0.539,-,CALM,��
2023/05/29,19:20,0.549,0.809,0.494,0.990,0.715,0.325,0.571,0.540,-,CALM,��
2023/05/29,19:30,0.548,0.810,0.494,0.988,0.715,0.324,0.572,0.540,���쓌,0.9,��
2023/05/29,19:40,0.550,0.809,0.492,0.988,0.715,0.324,0.573,0.541,-,CALM,��
2023/05/29,19:50,0.548,0.809,0.494,0.988,0.712,0.324,0.573,0.541,-,CALM,��
2023/05/29,20:00,0.548,0.810,0.493,0.987,0.714,0.326,0.571,0.541,-,CALM,��
2023/05/29,20:10,0.551,0.808,0.492,0.989,0.715,0.324,0.573,0.539,-,CALM,��
2023/05/29,20:20,0.549,0.810,0.493,0.989,0.714,0.325,0.572,0.540,�k��,1.1,��
2023/05/29,20:30,0.549,0.811,0.495,0.989,0.715,0.324,0.573,0.539,-,CALM,��
2023/05/29,20:40,0.551,0.808,0.493,0.990,0.714,0.325,0.574,0.539,��쓌,1.2,��
2023/05/29,20:50,0.548,0.811,0.492,0.990,0.715,0.325,0.573,0.539,��,0.9,��
2023/05/29,21:00,0.550,0.811,0.493,0.989,0.714,0.324,0.572,0.539,���k��,1.7,��
2023/05/29,21:10,0.551,0.810,0.493,0.989,0.715,0.326,0.573,0.539,-,CALM,�L
2023/05/29,21:20,0.551,0.810,0.494,0.990,0.716,0.327,0.572,0.540,���k��,0.9,�L
2023/05/29,21:30,0.549,0.810,0.495,0.989,0.716,0.325,0.572,0.540,�쐼,0.8,��
2023/05/29,21:40,0.549,0.810,0.494,0.989,0.715,0.324,0.572,0.540,�쐼,0.6,��
2023/05/29,21:50,0.549,0.810,0.493,0.989,0.715,0.326,0.573,0.541,��,0.6,��
2023/05/29,22:00,0.550,0.810,0.493,0.990,0.715,0.326,0.572,0.541,-,CALM,��
2023/05/29,22:10,0.551,0.809,0.494,0.989,0.714,0.325,0.572,0.540,�k��,1.2,�L
2023/05/29,22:20,0.550,0.810,0.492,0.987,0.714,0.325,0.572,0.540,�k,1.7,��
2023/05/29,22:30,0.549,0.811,0.495,0.989,0.717,0.326,0.572,0.539,���k��,0.9,��
2023/05/29,22:40,0.549,0.811,0.494,0.989,0.715,0.326,0.572,0.541,�k��,1.2,��
2023/05/29,22:50,0.549,0.811,0.494,0.992,0.716,0.326,0.573,0.540,�k�k��,0.8,��
2023/05/29,23:00,0.551,0.812,0.496,0.992,0.716,0.326,0.572,0.539,�k,1.2,��
2023/05/29,23:10,0.550,0.812,0.494,0.988,0.717,0.326,0.571,0.540,���쐼,0.6,��
2023/05/29,23:20,0.552,0.812,0.494,0.992,0.718,0.327,0.574,0.540,-,CALM,��
2023/05/29,23:30,0.550,0.813,0.494,0.992,0.715,0.326,0.573,0.541,��,0.6,��
2023/05/29,23:40,0.550,0.811,0.494,0.989,0.714,0.327,0.572,0.540,�k,0.8,��
2023/05/29,23:50,0.551,0.809,0.493,0.989,0.715,0.327,0.573,0.542,-,CALM,��
